Regional Weather Roundup
Issued by NWS Grand Forks, ND

Home | Current Version | Previous Version | Text Only | Print | Product List | Glossary Off
Versions: 1 2 3 4 5 6 7 8 9 10 11 12 13 14 15 16 17 18 19 20 21 22 23 24 25 26 27 28 29 30 31 32 33 34 35 36 37 38 39 40 41 42 43 44 45 46 47 48 49 50

000
ASUS43 KFGF 220331
RWRFGF
PRAIRIE TO PINES  WEATHER ROUNDUP
NATIONAL WEATHER SERVICE EASTERN NORTH DAKOTA/GRAND FORKS ND
900 PM CST WED FEB 21 2018

 **SATELLITE DATA USED TO AUGMENT SKY COVER AT AUTOMATED STATIONS**
 *****  WEATHER ACROSS EASTERN NORTH DAKOTA  *****

CITY           SKY/WX    TMP DP  RH WIND       PRES   REMARKS
GRAND FORKS    FAIR      -1  -5  82 S7        30.52S WCI -14
GRAND FRKS AFB FAIR      -4  -9  78 SW6       30.51S WCI -16
GRAND FRKS NWS   N/A      3  -1  85 S6        30.50S WCI  -8
DEVILS LAKE    FAIR      -6  -9  86 SE5       30.44S WCI -17
FARGO          FAIR       5  -2  72 S8        30.55R WCI  -8
WAHPETON ARPT  FAIR       1  -6  71 S3        30.57R
$$

 ***** WEATHER ACROSS CENTRAL AND WESTERN NORTH DAKOTA  *****

CITY           SKY/WX    TMP DP  RH WIND       PRES   REMARKS
BISMARCK       FAIR       3  -3  76 SE3       30.39S
MINOT          FAIR       5  -2  72 S8        30.32F WCI  -8
JAMESTOWN      FAIR       0  -5  79 S8        30.44R WCI -14
MINOT AFB      FAIR       1  -5  78 S8        30.32F WCI -14
GARRISON         N/A     -3  -7  82 SE7       30.33S WCI -16
WILLISTON      FAIR       7  -4  60 S7        30.25F WCI  -5
DICKINSON      FAIR       2  -8  63 S14       30.21F WCI -16
HETTINGER      FAIR      -4 -11  72 SE3       30.26S
$$

 *****  OTHER AIRPORT OBSERVATIONS IN OUR AREA  *****

CITY           SKY/WX    TMP DP  RH WIND       PRES   REMARKS
WALHALLA       FAIR       0  -4  85 CALM      30.48S
GRAFTON AIRPOR FAIR      -2  -6  84 S9        30.54R WCI -18
VALLEY CITY AR MOCLDY     3  -2  78 S13       30.49S WCI -14
CANDO          FAIR      -8 -11  84 SE6       30.43F WCI -21
CAVALIER APRT    N/A     -2  -6  84 S3        30.49S
GWINNER          N/A     -2  -8  78 CALM      30.51F
SHEYENNE NWR     N/A     -2  -7  80 S5        29.95S WCI -12
ROLLA          FAIR      -2  -6  84 SW12      30.37S WCI -20
 ***** THE ABOVE OBSERVATIONS ARE NON NWS ARE NOT QUALITY
       CONTROLLED AND MAY MIS-REPORT RAIN FOR SNOW...
$$

  *****  WEATHER ACROSS NORTHERN MINNESOTA  *****

CITY           SKY/WX    TMP DP  RH WIND       PRES   REMARKS
FLAG ISLAND    FAIR      -6 -11  77 S7        30.48S WCI -20
WARROAD        FAIR       1  -6  71 SW8       30.50R WCI -12
ROSEAU         FAIR       3  -2  78 SW9       30.50S WCI -11
HALLOCK        FAIR      -6  -9  84 S9        30.51S WCI -22
THF RVR FALLS  FAIR       0  -4  83 S10       30.52F WCI -16
BAUDETTE       FAIR       0  -7  72 S6        30.49R WCI -12
WASKISH        FAIR      -6  -9  84 CALM      30.52R
CROOKSTON      FAIR      -2  -8  78 S8        30.55S WCI -17
STEPHEN NDAWN    N/A      0  -6  78 S6          N/A  WCI -12
GREENBUSH NDAW   N/A     -2  -8  78 S8          N/A  WCI -17
$$
  *****  WEATHER ACROSS CENTRAL AND WEST MINNESOTA  *****

CITY           SKY/WX    TMP DP  RH WIND       PRES   REMARKS
FOSSTON        FAIR      -4  -9  77 S7        30.52S WCI -18
BEMIDJI        FAIR       7  -4  59 S3        30.51S
PARK RAPIDS    FAIR       2  -6  69 CALM      30.52R
ELBOW LAKE     FAIR       5  -2  73 E6        30.56R WCI  -6
WADENA         FAIR       0  -8  71 S3        30.55R
DETROIT LAKES  FAIR       7  -2  66 S3        30.53S
MOORHEAD       FAIR       0  -6  78 S8        30.57R WCI -15
FERGUS FALLS   FAIR       5  -2  72 S8        30.58R WCI  -8
MORRIS MN      FAIR       1  -6  71 SE9       30.57R WCI -14
STAPLES        FAIR       1  -6  71 CALM      30.56R
$$
  *****  WEATHER ELSEWHERE ACROSS MINNESOTA  *****

CITY           SKY/WX    TMP DP  RH WIND       PRES   REMARKS
DULUTH         FAIR      12   0  58 SW7       30.55R WCI   1
INTRNTL FALLS  FAIR       8  -4  58 W9        30.50R WCI  -5
ELY            FAIR       9   1  72 S5        30.51R WCI   0
CLOQUET        FAIR      10  -2  56 SW5       30.56S WCI   2
WHEATON        FAIR      -2  -9  71 SE8       30.58S WCI -17
BRAINERD       FAIR       5  -6  60 SW6       30.57R WCI  -6
HIBBING        FAIR      -3  -6  87 CALM      30.52R
ALEXANDRIA     FAIR       4  -3  73 S7        30.55S WCI  -8
SAINT CLOUD    FAIR       3  -3  76 CALM      30.60F
MINNEAPOLIS    MOCLDY    16   5  62 S5        30.64F WCI   9
$$

  *****  WEATHER ACROSS SOUTH DAKOTA  *****

CITY           SKY/WX    TMP DP  RH WIND       PRES   REMARKS
SIOUX FALLS    CLOUDY    15   5  64 SE7       30.54F WCI   5
BROOKINGS      MOCLDY    10   3  73 SE10      30.52F WCI  -4
WATERTOWN      MOCLDY     7   0  73 S13       30.48F WCI  -9
HURON          FAIR       9   2  73 SE13      30.49S WCI  -7
SISSETON         N/A      0  -5  79 CALM      30.53S
ABERDEEN       FAIR      -2  -6  83 SE7       30.49F WCI -15
MITCHELL       MOCLDY    14   5  67 SE14      30.52S WCI  -1
PIERRE         FAIR      13   7  77 SE23      30.35F WCI  -6
MOBRIDGE       FAIR       4  -4  69 SE10      30.34F WCI -11
RAPID CITY     FAIR       9   0  67 S12       30.19S WCI  -6
$$

  *****  SOME WEATHER IN NEARBY STATES *****

CITY           SKY/WX    TMP DP  RH WIND       PRES   REMARKS
GLASGOW MT     FAIR      -8 -12  83 E12       30.16F WCI -27
GREAT FALLS MT FAIR       6  -5  60 SW10      29.98S WCI  -9
CHEYENNE WY    MOCLDY    12   7  80 SW6       30.09S WCI   3
SCOTTSBLUFF NE FAIR      16   9  74 E12       30.21S WCI   3
OMAHA NE       CLOUDY    24  14  65 E6        30.57S WCI  17
DES MOINES IA  CLOUDY    24  16  71 E8        30.59S WCI  15
DAVENPORT IA   FAIR      27  18  69 NE9       30.62S WCI  18
CHICAGO IL     CLOUDY    29  20  69 NE8       30.63S WCI  21
EAU CLAIRE WI  FAIR       7   3  84 CALM      30.64S
LA CROSSE WI   FAIR      20  15  81 CALM      30.66F
$$

  *****  SOME NATIONAL WEATHER *****

CITY           SKY/WX    TMP DP  RH WIND       PRES   REMARKS
LA GUARDIA NY  CLOUDY    57  51  80 NW10      30.36R
RALEIGH NC     MOCLDY    70  62  76 S10       30.43R
ATLANTA GA     FAIR      70  64  81 SE8       30.36S
NEW ORLEANS LA MOCLDY    76  74  93 SE12      30.24R
OKLAHOMA CITY  FRZ DRZL  24  23  96 N13       30.33F VSB 3/4 WCI  12
ALBUQUERQUE NM CLOUDY    42  25  50 E9        30.01R
SALT LAKE CITY FAIR      25  12  58 CALM      30.09S
LOS ANGELES CA FAIR      55  31  39 W16       30.14R
BOISE ID       CLOUDY    31  18  58 CALM      30.06F
SEATTLE WA     LGT SNOW  31  28  89 SE8       30.19F FOG     WCI  23
$$

*** WEATHER ACROSS MANITOBA...SASKATCHEWAN AND ONTARIO ***
                ***ONTARIO***

CITY           SKY/WX    TMP DP  RH WIND       PRES   REMARKS
GERALDTON      NOT AVBL
THUNDER BAY    NOT AVBL
SIOUX LOOKOUT  NOT AVBL
TORONTO        NOT AVBL
BIG TROUT LK   NOT AVBL
PICKLE LAKE    NOT AVBL
DRYDEN         NOT AVBL
KENORA         NOT AVBL
$$
                *** MANITOBA***

CITY           SKY/WX    TMP DP  RH WIND       PRES   REMARKS
BRANDON        NOT AVBL
DAUPHIN        NOT AVBL
ISLAND LAKE    NOT AVBL
PILOT MOUND    NOT AVBL
THE PAS        NOT AVBL
THOMPSON       NOT AVBL
WINNIPEG       NOT AVBL
$$
                ***SASKATCHEWAN***

CITY           SKY/WX    TMP DP  RH WIND       PRES   REMARKS
ESTEVAN        NOT AVBL
KINDERSLEY     NOT AVBL
LLOYDMINSTER   NOT AVBL
PRINCE ALBERT  NOT AVBL
REGINA         NOT AVBL
YORKTON        NOT AVBL
N. BATTLEFORD  NOT AVBL
LA RONGE       NOT AVBL
SASKATOON      NOT AVBL
SWIFT CURRENT  NOT AVBL
$$
NOTE: THESE ARE AUTOMATED STATIONS WITH LIMITED QUALITY CONTROL
      "FAIR" INDICATES FEW OR NO CLOUDS BELOW 12,000 FEET WITH NO
      SIGNIFICANT WEATHER AND/OR OBSTRUCTIONS TO VISIBILITY.
      SKY/WX - SKY CONDITION AND SIGNIFICANT WEATHER.
      TMP - AIR TEMPERATURE.    DP   - DEWPOINT TEMPERATURE.
      RH  - RELATIVE HUMIDITY.  PRES - PRESSURE.
      HX  - HEAT INDEX.         WCI  - WIND CHILL INDEX.
$




USA.gov is the U.S. government's official web portal to all federal, state and local government web resources and services.